{"data":{"norad_id":60329,"intl_designator":"2024-136A","name":"STARLINK-31745","alt_names":[],"object_type":"PAYLOAD","status":"ACTIVE","operator":null,"country":"US","launch_date":"2024-08-02","launch_site_code":"AFETR","launch_vehicle":null,"mission":null,"orbit_class":"UNKNOWN","rcs_meters":null,"size_class":null,"mass_kg":null,"dimensions":null,"purposes":["comms"],"wikipedia_slug":null,"has_3d_model":false,"image_url":null,"decayed_at":null,"tle_current":{"epoch":"2026-05-25T02:26:10.978080Z","epoch_age_seconds":59637,"freshness":"FRESH","line1":"1 60329U 24136A   26145.10151595  .00000863  00000+0  39572-4 0  9997","line2":"2 60329  53.1607  80.7384 0001293  82.2309 277.8839 15.31704922102576","mean_motion":15.31704922,"eccentricity":0.0001293,"inclination_deg":53.1607,"raan_deg":80.7384,"arg_perigee_deg":82.2309,"mean_anomaly_deg":277.8839,"bstar":3.9572e-5,"rev_number":10257,"period_min":94.01288585792,"perigee_km":469.83976514069,"apogee_km":471.61088093743,"semimajor_km":6848.8623230391,"source":"CELESTRAK","updated_at":"2026-05-25T13:38:19.232477Z"}}}